Location: The Saddle
(36.8333°N, 80.3417°W)
Time: 10:09:10
(UTC-05:00)

SR - Pass Details

Date: 12 December 2023
Orbit: 574 x 867 km, 66.7° (Epoch: 03 March)

Event Time Altitude Azimuth Distance (km) Brightness Sun altitude
Rises 19:26:36 0° 327° (NNW) 3,415 ? -27.4°
Reaches altitude 10° 19:29:11 10° 324° (NW) 2,448 ? -28.0°
Maximum altitude 19:34:41 55° 248° (WSW) 949 ? -29.0°
Enters shadow 19:36:57 32° 186° (S) 1,308 ? -29.5°
